GSAT0216 (GALILEO 20)

Last updated on Sun Sep 20 2026 00:02:47 GMT+0000 (Coordinated Universal Time)

1 43056U 17079B 26261.57308682 .00000017 00000+0 00000+0 0 9994 2 43056 55.0524 218.9383 0004508 291.1911 68.7342 1.70474064 54592
UTC large
Height (km)
Speed (km/s)
/
Latitude / Longitude
Inclination (degrees)
Orbital Period (minutes)
Azimuth
Elevation
Range (km)
Doppler Factor

Next 0 passes for location: London (51.5072 / 0.1276)

No passes found over London.
GSAT0216 (GALILEO 20)